Time,TemperatureF,DewpointF,PressureIn,WindDirection,WindDirectionDegrees,WindSpeedMPH,WindSpeedGustMPH,Humidity,HourlyPrecipIn,Conditions,Clouds,dailyrainin,SoftwareType,DateUTC
2013-05-03 00:03:00,65.0,63.0,29.93,ENE,62,1.0,4.0,92,0.00,,,0.02,,2013-05-03 05:03:00,
2013-05-03 00:12:00,65.0,63.0,29.93,ENE,62,1.0,4.0,92,0.00,,,0.02,,2013-05-03 05:12:00,
2013-05-03 00:22:00,65.0,63.0,29.93,SE,125,2.0,5.0,93,0.00,,,0.02,,2013-05-03 05:22:00,
2013-05-03 00:32:00,65.0,63.0,29.93,East,101,1.0,7.0,92,0.00,,,0.02,,2013-05-03 05:32:00,
2013-05-03 00:42:00,65.0,63.0,29.93,East,101,1.0,7.0,92,0.00,,,0.02,,2013-05-03 05:42:00,
2013-05-03 00:52:00,65.0,63.0,29.93,ESE,115,1.0,8.0,92,0.00,,,0.02,,2013-05-03 05:52:00,
2013-05-03 01:02:00,65.0,63.0,29.92,ESE,123,0.0,4.0,92,0.00,,,0.02,,2013-05-03 06:02:00,
2013-05-03 01:12:00,65.0,63.0,29.92,ESE,123,0.0,4.0,92,0.00,,,0.02,,2013-05-03 06:12:00,
2013-05-03 01:21:00,65.0,63.0,29.92,East,84,1.0,7.0,92,0.00,,,0.02,,2013-05-03 06:21:00,
2013-05-03 01:32:00,65.0,62.0,29.91,NE,49,3.0,9.0,91,0.00,,,0.02,,2013-05-03 06:32:00,
2013-05-03 01:42:00,65.0,62.0,29.91,NE,49,3.0,9.0,91,0.00,,,0.02,,2013-05-03 06:42:00,
2013-05-03 01:52:00,64.0,61.0,29.91,East,79,1.0,5.0,91,0.00,,,0.02,,2013-05-03 06:52:00,
2013-05-03 02:02:00,64.0,61.0,29.90,East,91,2.0,7.0,91,0.00,,,0.02,,2013-05-03 07:02:00,
2013-05-03 02:11:00,64.0,61.0,29.90,East,91,2.0,7.0,91,0.00,,,0.02,,2013-05-03 07:11:00,
2013-05-03 02:22:00,64.0,61.0,29.90,ESE,105,1.0,5.0,91,0.00,,,0.02,,2013-05-03 07:22:00,
2013-05-03 02:32:00,64.0,61.0,29.89,NE,47,3.0,9.0,91,0.00,,,0.02,,2013-05-03 07:32:00,
2013-05-03 02:42:00,64.0,61.0,29.89,NE,47,3.0,9.0,91,0.00,,,0.02,,2013-05-03 07:42:00,
2013-05-03 02:52:00,64.0,62.0,29.88,East,79,2.0,5.0,92,0.00,,,0.02,,2013-05-03 07:52:00,
2013-05-03 03:02:00,63.0,61.0,29.88,East,83,1.0,8.0,92,0.00,,,0.02,,2013-05-03 08:02:00,
2013-05-03 03:12:00,63.0,61.0,29.88,East,83,1.0,8.0,92,0.00,,,0.02,,2013-05-03 08:12:00,
2013-05-03 03:21:00,63.0,61.0,29.88,ENE,69,1.0,7.0,93,0.00,,,0.02,,2013-05-03 08:21:00,
2013-05-03 03:32:00,63.0,61.0,29.88,ESE,102,1.0,7.0,93,0.00,,,0.02,,2013-05-03 08:32:00,
2013-05-03 03:42:00,63.0,61.0,29.88,ESE,102,1.0,7.0,93,0.00,,,0.02,,2013-05-03 08:42:00,
2013-05-03 03:52:00,63.0,61.0,29.88,SSE,160,1.0,5.0,93,0.00,,,0.02,,2013-05-03 08:52:00,
2013-05-03 04:01:00,63.0,61.0,29.88,ENE,74,0.0,3.0,94,0.00,,,0.02,,2013-05-03 09:01:00,
2013-05-03 04:12:00,63.0,61.0,29.88,ENE,74,0.0,3.0,94,0.00,,,0.02,,2013-05-03 09:12:00,
2013-05-03 04:21:00,63.0,61.0,29.88,ENE,75,1.0,6.0,94,0.00,,,0.02,,2013-05-03 09:21:00,
2013-05-03 04:33:00,63.0,61.0,29.87,ENE,70,1.0,5.0,94,0.00,,,0.02,,2013-05-03 09:33:00,
2013-05-03 04:42:00,63.0,61.0,29.87,ENE,70,1.0,5.0,94,0.00,,,0.02,,2013-05-03 09:42:00,
2013-05-03 04:52:00,62.0,61.0,29.87,ENE,60,1.0,6.0,95,0.01,,,0.03,,2013-05-03 09:52:00,
2013-05-03 05:03:00,62.0,61.0,29.87,East,100,1.0,6.0,95,0.01,,,0.03,,2013-05-03 10:03:00,
2013-05-03 05:13:00,62.0,61.0,29.87,East,100,1.0,6.0,95,0.01,,,0.03,,2013-05-03 10:13:00,
2013-05-03 05:22:00,62.0,61.0,29.87,ESE,113,1.0,4.0,96,0.01,,,0.03,,2013-05-03 10:22:00,
2013-05-03 05:32:00,62.0,61.0,29.88,East,84,1.0,3.0,96,0.01,,,0.03,,2013-05-03 10:32:00,
2013-05-03 05:42:00,62.0,61.0,29.88,East,84,1.0,3.0,96,0.01,,,0.03,,2013-05-03 10:42:00,
2013-05-03 05:52:00,62.0,61.0,29.87,SE,139,1.0,4.0,96,0.00,,,0.03,,2013-05-03 10:52:00,
2013-05-03 06:02:00,62.0,61.0,29.88,East,87,1.0,4.0,96,0.00,,,0.03,,2013-05-03 11:02:00,
2013-05-03 06:11:00,62.0,61.0,29.88,East,87,1.0,4.0,96,0.00,,,0.03,,2013-05-03 11:11:00,
2013-05-03 06:22:00,62.0,61.0,29.88,East,85,0.0,3.0,96,0.00,,,0.03,,2013-05-03 11:22:00,
2013-05-03 06:32:00,62.0,61.0,29.88,East,89,0.0,5.0,96,0.00,,,0.03,,2013-05-03 11:32:00,
2013-05-03 06:42:00,62.0,61.0,29.88,East,89,0.0,5.0,96,0.00,,,0.03,,2013-05-03 11:42:00,
2013-05-03 06:52:00,62.0,61.0,29.88,East,86,1.0,4.0,96,0.00,,,0.03,,2013-05-03 11:52:00,
2013-05-03 07:02:00,62.0,61.0,29.88,ENE,62,1.0,4.0,96,0.00,,,0.03,,2013-05-03 12:02:00,
2013-05-03 07:12:00,62.0,61.0,29.88,ENE,62,1.0,4.0,96,0.00,,,0.03,,2013-05-03 12:12:00,
2013-05-03 07:22:00,62.0,61.0,29.88,ENE,64,1.0,5.0,96,0.00,,,0.03,,2013-05-03 12:22:00,
2013-05-03 07:32:00,62.0,61.0,29.88,ESE,115,0.0,4.0,95,0.00,,,0.03,,2013-05-03 12:32:00,
2013-05-03 07:42:00,62.0,61.0,29.88,ESE,115,0.0,4.0,95,0.00,,,0.03,,2013-05-03 12:42:00,
2013-05-03 07:52:00,62.0,61.0,29.89,ENE,73,1.0,5.0,95,0.00,,,0.03,,2013-05-03 12:52:00,
2013-05-03 08:01:00,62.0,61.0,29.88,ENE,74,2.0,11.0,95,0.00,,,0.03,,2013-05-03 13:01:00,
2013-05-03 08:11:00,62.0,61.0,29.88,ENE,74,2.0,11.0,95,0.00,,,0.03,,2013-05-03 13:11:00,
2013-05-03 08:22:00,63.0,62.0,29.88,ESE,110,1.0,5.0,95,0.01,,,0.04,,2013-05-03 13:22:00,
2013-05-03 08:32:00,63.0,61.0,29.88,East,93,1.0,5.0,94,0.01,,,0.04,,2013-05-03 13:32:00,
2013-05-03 08:42:00,63.0,61.0,29.88,East,93,1.0,5.0,94,0.01,,,0.04,,2013-05-03 13:42:00,
2013-05-03 08:52:00,64.0,61.0,29.88,East,81,4.0,9.0,91,0.01,,,0.04,,2013-05-03 13:52:00,
2013-05-03 09:02:00,65.0,62.0,29.88,ESE,119,2.0,12.0,89,0.01,,,0.04,,2013-05-03 14:02:00,
2013-05-03 09:11:00,65.0,62.0,29.88,ESE,119,2.0,12.0,89,0.01,,,0.04,,2013-05-03 14:11:00,
2013-05-03 09:22:00,66.0,62.0,29.88,ENE,61,5.0,9.0,86,0.00,,,0.04,,2013-05-03 14:22:00,
2013-05-03 09:32:00,66.0,62.0,29.88,ENE,58,4.0,10.0,86,0.00,,,0.04,,2013-05-03 14:32:00,
2013-05-03 09:42:00,66.0,62.0,29.88,ENE,58,4.0,10.0,86,0.00,,,0.04,,2013-05-03 14:42:00,
2013-05-03 09:52:00,66.0,61.0,29.88,East,82,5.0,9.0,85,0.00,,,0.04,,2013-05-03 14:52:00,
2013-05-03 10:01:00,67.0,62.0,29.88,NE,56,4.0,12.0,83,0.00,,,0.04,,2013-05-03 15:01:00,
2013-05-03 10:11:00,67.0,62.0,29.88,NE,56,4.0,12.0,83,0.00,,,0.04,,2013-05-03 15:11:00,
2013-05-03 10:22:00,67.0,61.0,29.88,ESE,108,4.0,11.0,82,0.00,,,0.04,,2013-05-03 15:22:00,
2013-05-03 10:32:00,67.0,61.0,29.88,SE,129,4.0,13.0,81,0.00,,,0.04,,2013-05-03 15:32:00,
2013-05-03 10:43:00,67.0,61.0,29.88,SE,129,4.0,13.0,81,0.00,,,0.04,,2013-05-03 15:43:00,
2013-05-03 10:53:00,68.0,61.0,29.88,ENE,65,4.0,17.0,79,0.00,,,0.04,,2013-05-03 15:53:00,
2013-05-03 11:03:00,69.0,61.0,29.88,SE,131,6.0,14.0,76,0.00,,,0.04,,2013-05-03 16:03:00,
2013-05-03 11:13:00,69.0,61.0,29.88,SE,131,6.0,14.0,76,0.00,,,0.04,,2013-05-03 16:13:00,
2013-05-03 11:23:00,69.0,61.0,29.88,East,88,6.0,13.0,77,0.00,,,0.04,,2013-05-03 16:23:00,
2013-05-03 11:33:00,69.0,61.0,29.87,ENE,63,4.0,13.0,76,0.00,,,0.04,,2013-05-03 16:33:00,
2013-05-03 11:42:00,69.0,61.0,29.87,ENE,63,4.0,13.0,76,0.00,,,0.04,,2013-05-03 16:42:00,
2013-05-03 11:52:00,70.0,62.0,29.87,NNE,25,5.0,13.0,75,0.00,,,0.04,,2013-05-03 16:52:00,
2013-05-03 12:02:00,71.0,61.0,29.87,ENE,57,7.0,13.0,71,0.00,,,0.04,,2013-05-03 17:02:00,
2013-05-03 12:12:00,71.0,61.0,29.87,ENE,57,7.0,13.0,71,0.00,,,0.04,,2013-05-03 17:12:00,
2013-05-03 12:23:00,71.0,61.0,29.87,NE,51,5.0,13.0,71,0.00,,,0.04,,2013-05-03 17:23:00,
2013-05-03 12:32:00,71.0,62.0,29.86,NE,53,6.0,12.0,72,0.00,,,0.04,,2013-05-03 17:32:00,
2013-05-03 12:42:00,71.0,62.0,29.86,NE,53,6.0,12.0,72,0.00,,,0.04,,2013-05-03 17:42:00,
2013-05-03 12:52:00,70.0,61.0,29.85,ENE,68,3.0,12.0,73,0.00,,,0.04,,2013-05-03 17:52:00,
2013-05-03 13:01:00,71.0,62.0,29.85,NE,36,3.0,11.0,73,0.00,,,0.04,,2013-05-03 18:01:00,
2013-05-03 13:12:00,71.0,62.0,29.85,NE,36,3.0,11.0,73,0.00,,,0.04,,2013-05-03 18:12:00,
2013-05-03 13:22:00,71.0,62.0,29.85,ENE,58,2.0,7.0,74,0.00,,,0.04,,2013-05-03 18:22:00,
2013-05-03 13:32:00,71.0,62.0,29.85,ENE,63,3.0,12.0,72,0.00,,,0.04,,2013-05-03 18:32:00,
2013-05-03 13:42:00,71.0,62.0,29.85,ENE,63,3.0,12.0,72,0.00,,,0.04,,2013-05-03 18:42:00,
2013-05-03 13:51:00,70.0,62.0,29.85,ENE,68,5.0,12.0,75,0.00,,,0.04,,2013-05-03 18:51:00,
2013-05-03 14:01:00,71.0,62.0,29.85,East,92,5.0,12.0,73,0.00,,,0.04,,2013-05-03 19:01:00,
2013-05-03 14:11:00,71.0,62.0,29.85,East,92,5.0,12.0,73,0.00,,,0.04,,2013-05-03 19:11:00,
2013-05-03 14:21:00,71.0,62.0,29.84,NNE,27,5.0,12.0,74,0.00,,,0.04,,2013-05-03 19:21:00,
2013-05-03 14:32:00,69.0,62.0,29.84,ENE,64,4.0,11.0,79,0.00,,,0.04,,2013-05-03 19:32:00,
2013-05-03 14:42:00,69.0,62.0,29.84,ENE,64,4.0,11.0,79,0.00,,,0.04,,2013-05-03 19:42:00,
2013-05-03 14:52:00,69.0,63.0,29.84,ESE,108,4.0,7.0,81,0.00,,,0.04,,2013-05-03 19:52:00,
2013-05-03 15:02:00,68.0,63.0,29.83,NE,50,4.0,8.0,83,0.00,,,0.04,,2013-05-03 20:02:00,
2013-05-03 15:12:00,68.0,63.0,29.83,NE,50,4.0,8.0,83,0.00,,,0.04,,2013-05-03 20:12:00,
2013-05-03 15:21:00,68.0,63.0,29.83,East,86,3.0,12.0,83,0.00,,,0.04,,2013-05-03 20:21:00,
2013-05-03 15:32:00,68.0,62.0,29.82,ENE,64,4.0,11.0,82,0.00,,,0.04,,2013-05-03 20:32:00,
2013-05-03 15:42:00,68.0,62.0,29.82,ENE,64,4.0,11.0,82,0.00,,,0.04,,2013-05-03 20:42:00,
2013-05-03 15:52:00,68.0,63.0,29.82,ESE,105,2.0,8.0,83,0.00,,,0.04,,2013-05-03 20:52:00,
2013-05-03 16:02:00,68.0,63.0,29.81,East,98,4.0,8.0,84,0.00,,,0.04,,2013-05-03 21:02:00,
2013-05-03 16:11:00,68.0,63.0,29.81,East,98,4.0,8.0,84,0.00,,,0.04,,2013-05-03 21:11:00,
2013-05-03 16:22:00,66.0,63.0,29.81,SSE,153,1.0,12.0,91,0.00,,,0.04,,2013-05-03 21:22:00,
2013-05-03 16:33:00,66.0,63.0,29.81,ENE,61,5.0,9.0,90,0.00,,,0.04,,2013-05-03 21:33:00,
2013-05-03 16:42:00,66.0,63.0,29.81,ENE,61,5.0,9.0,90,0.00,,,0.04,,2013-05-03 21:42:00,
2013-05-03 16:52:00,65.0,62.0,29.81,South,187,4.0,13.0,91,0.00,,,0.04,,2013-05-03 21:52:00,
2013-05-03 17:03:00,65.0,63.0,29.81,East,96,4.0,13.0,93,0.00,,,0.04,,2013-05-03 22:03:00,
2013-05-03 17:13:00,65.0,63.0,29.81,East,96,4.0,13.0,93,0.00,,,0.04,,2013-05-03 22:13:00,
2013-05-03 17:22:00,64.0,63.0,29.81,NE,50,2.0,7.0,95,0.01,,,0.05,,2013-05-03 22:22:00,
2013-05-03 17:32:00,64.0,63.0,29.80,ENE,68,4.0,8.0,95,0.02,,,0.06,,2013-05-03 22:32:00,
2013-05-03 17:42:00,64.0,63.0,29.80,ENE,68,4.0,8.0,95,0.02,,,0.06,,2013-05-03 22:42:00,
2013-05-03 17:52:00,64.0,63.0,29.80,ESE,102,3.0,10.0,95,0.02,,,0.06,,2013-05-03 22:52:00,
2013-05-03 18:02:00,64.0,63.0,29.80,ENE,78,4.0,13.0,95,0.02,,,0.06,,2013-05-03 23:02:00,
2013-05-03 18:11:00,64.0,63.0,29.80,ENE,78,4.0,13.0,95,0.02,,,0.06,,2013-05-03 23:11:00,
2013-05-03 18:22:00,64.0,63.0,29.80,East,88,5.0,10.0,95,0.01,,,0.06,,2013-05-03 23:22:00,
2013-05-03 18:32:00,63.0,62.0,29.80,ENE,67,3.0,8.0,95,0.00,,,0.06,,2013-05-03 23:32:00,
2013-05-03 18:41:00,63.0,62.0,29.80,ENE,67,3.0,8.0,95,0.00,,,0.06,,2013-05-03 23:41:00,
2013-05-03 18:52:00,63.0,62.0,29.80,NE,43,3.0,8.0,96,0.00,,,0.06,,2013-05-03 23:52:00,
2013-05-03 19:01:00,63.0,62.0,29.80,East,82,3.0,10.0,96,0.01,,,0.07,,2013-05-04 00:01:00,
2013-05-03 19:11:00,63.0,62.0,29.80,East,82,3.0,10.0,96,0.01,,,0.07,,2013-05-04 00:11:00,
2013-05-03 19:23:00,63.0,62.0,29.81,NNE,29,2.0,9.0,96,0.02,,,0.08,,2013-05-04 00:23:00,
2013-05-03 19:32:00,63.0,62.0,29.81,East,87,4.0,9.0,96,0.04,,,0.10,,2013-05-04 00:32:00,
2013-05-03 19:42:00,63.0,62.0,29.81,East,87,4.0,9.0,96,0.04,,,0.10,,2013-05-04 00:42:00,
2013-05-03 19:52:00,63.0,62.0,29.82,NE,51,2.0,8.0,96,0.05,,,0.11,,2013-05-04 00:52:00,
2013-05-03 20:01:00,63.0,62.0,29.82,ESE,112,1.0,8.0,97,0.05,,,0.12,,2013-05-04 01:01:00,
2013-05-03 20:11:00,63.0,62.0,29.82,ESE,112,1.0,8.0,97,0.05,,,0.12,,2013-05-04 01:11:00,
2013-05-03 20:21:00,63.0,62.0,29.82,ENE,75,3.0,9.0,97,0.04,,,0.12,,2013-05-04 01:21:00,
2013-05-03 20:32:00,62.0,61.0,29.82,ENE,77,2.0,7.0,97,0.03,,,0.11,,2013-05-04 01:32:00,
2013-05-03 20:42:00,62.0,61.0,29.82,ENE,77,2.0,7.0,97,0.03,,,0.11,,2013-05-04 01:42:00,
2013-05-03 20:52:00,62.0,61.0,29.82,SSE,150,2.0,6.0,97,0.02,,,0.11,,2013-05-04 01:52:00,
2013-05-03 21:02:00,62.0,61.0,29.83,East,96,2.0,6.0,97,0.02,,,0.12,,2013-05-04 02:02:00,
2013-05-03 21:11:00,62.0,61.0,29.83,East,96,2.0,6.0,97,0.02,,,0.12,,2013-05-04 02:11:00,
2013-05-03 21:21:00,62.0,61.0,29.83,ENE,70,4.0,7.0,97,0.03,,,0.13,,2013-05-04 02:21:00,
2013-05-03 21:32:00,62.0,61.0,29.83,NE,41,3.0,8.0,97,0.04,,,0.15,,2013-05-04 02:32:00,
2013-05-03 21:42:00,62.0,61.0,29.83,NE,41,3.0,8.0,97,0.04,,,0.15,,2013-05-04 02:42:00,
2013-05-03 21:52:00,62.0,61.0,29.83,ENE,77,4.0,9.0,96,0.05,,,0.16,,2013-05-04 02:52:00,
2013-05-03 22:02:00,62.0,61.0,29.83,East,98,6.0,14.0,96,0.04,,,0.16,,2013-05-04 03:02:00,
2013-05-03 22:11:00,62.0,61.0,29.83,East,98,6.0,14.0,96,0.04,,,0.16,,2013-05-04 03:11:00,
2013-05-03 22:22:00,62.0,61.0,29.83,ENE,61,3.0,9.0,96,0.03,,,0.16,,2013-05-04 03:22:00,
2013-05-03 22:33:00,62.0,61.0,29.83,NE,53,1.0,7.0,96,0.00,,,0.16,,2013-05-04 03:33:00,
2013-05-03 22:43:00,62.0,61.0,29.83,NE,53,1.0,7.0,96,0.00,,,0.16,,2013-05-04 03:43:00,
2013-05-03 22:52:00,61.0,60.0,29.83,NE,53,1.0,4.0,96,0.00,,,0.16,,2013-05-04 03:52:00,
2013-05-03 23:02:00,61.0,60.0,29.82,NE,43,1.0,4.0,96,0.00,,,0.16,,2013-05-04 04:02:00,
2013-05-03 23:12:00,61.0,60.0,29.82,NE,43,1.0,4.0,96,0.00,,,0.16,,2013-05-04 04:12:00,
2013-05-03 23:23:00,61.0,60.0,29.82,ENE,60,2.0,4.0,96,0.00,,,0.16,,2013-05-04 04:23:00,
2013-05-03 23:33:00,61.0,60.0,29.81,ENE,60,2.0,6.0,96,0.01,,,0.17,,2013-05-04 04:33:00,
2013-05-03 23:42:00,61.0,60.0,29.81,ENE,60,2.0,6.0,96,0.01,,,0.17,,2013-05-04 04:42:00,
2013-05-03 23:52:00,61.0,60.0,29.80,East,84,2.0,7.0,96,0.01,,,0.17,,2013-05-04 04:52:00,